Regional Weather Roundup
Issued by NWS Cleveland, OH

Home | Current Version | Previous Version | Graphics & Text | Print | Product List | Glossary On
Versions: 1 2 3 4 5 6 7 8 9 10 11 12 13 14 15 16 17 18 19 20 21 22 23 24 25 26 27 28 29 30 31 32 33 34 35 36 37 38 39 40 41 42 43 44 45 46 47 48 49 50
000
ASUS41 KCLE 162202
RWRCLE
OHIO REGIONAL WEATHER ROUNDUP
NATIONAL WEATHER SERVICE CLEVELAND, OH
600 PM EDT WED AUG 16 2017

NOTE: "FAIR" INDICATES FEW OR NO CLOUDS BELOW 12,000 FEET WITH NO
SIGNIFICANT WEATHER AND/OR OBSTRUCTIONS TO VISIBILITY.

OHZ001>008-015>018-024>027-034-035-043-044-162300-
   NORTHWEST OHIO

CITY           SKY/WX    TMP DP  RH WIND       PRES   REMARKS
DEFIANCE       MOSUNNY   86  65  49 E7        29.96F
FINDLAY        MOSUNNY   87  65  47 E8        29.97F
TOLEDO EXPRESS SUNNY     84  66  54 E14       29.97F
TOLEDO EXEC    SUNNY     82  66  58 E13       30.00F
LIMA           CLOUDY    85  68  56 SE3       29.97F
$$

OHZ009>014-019>023-028>033-038-089-162300-
   NORTHEAST OHIO

CITY           SKY/WX    TMP DP  RH WIND       PRES   REMARKS
CLE-HOPKINS    MOSUNNY   83  56  39 NE15      30.04F
CLE-LAKEFRONT  SUNNY     77  63  61 NE15      30.02S
CUY CO. ARPT   MOSUNNY   82  64  54 NE13      30.05S
LORAIN-ELYRIA  SUNNY     80  55  42 E9        30.03S
ASHTABULA      SUNNY     78  57  48 NE6       30.07F
AKRON-CANTON   MOSUNNY   85  59  41 NE6       30.03F
WOOSTER        CLOUDY    82  67  60 CALM      30.03F
MANSFIELD      MOSUNNY   84  66  54 E6        30.02F
YOUNGSTOWN     MOSUNNY   81  58  45 NE9       30.05F
$$

OHZ042-051>053-060>062-070>072-077>081-162300-
  SOUTHWEST OHIO

CITY           SKY/WX    TMP DP  RH WIND       PRES   REMARKS
CINC-COVINGTON MOSUNNY   88  71  57 SW7       29.96F HX  94
CINC-LUNKEN    SUNNY     89  72  56 S8        29.95F HX  96
HAMILTON       PTSUNNY   88  71  57 S3        29.95F HX  94
DAYTON         MOSUNNY   87  63  44 SW7       29.98F
WRIGHT-PAT AFB NOT AVBL
DAYTON GENERAL SUNNY     87  67  51 S7        29.97S HX  90
WILMINGTON     MOSUNNY   86  71  60 S6        29.98F HX  91
$$

OHZ036-037-039>041-045>050-054>059-063>069-073>076-082>088-162300-
  CENTRAL AND SOUTHEAST OHIO

CITY           SKY/WX    TMP DP  RH WIND       PRES   REMARKS
COLUMBUS       MOSUNNY   84  71  65 E7        29.97F
OSU AIRPORT    MOSUNNY   88  67  49 CALM      29.97F HX  91
BOLTON FIELD   SUNNY     86  70  58 SW6       29.99F HX  90
RICKENBACK AFB MOSUNNY   87  67  51 SW3       29.97F HX  90
NEWARK         MOSUNNY   84  69  60 SE6       29.99F
MARION         SUNNY     85  65  51 SE7       29.99F
LANCASTER      SUNNY     87  67  51 VRB3      29.99F HX  90
ZANESVILLE     CLOUDY    84  69  60 NE5       30.00F
NEW PHILLY     NOT AVBL
$$




USA.gov is the U.S. government's official web portal to all federal, state and local government web resources and services.